Dewpoint
31 32 32 33 32 33 33 34 34 35 35 35 35 35 35 34 34 35 36 36 35 36
32 31 32 33 33 33 33 33 34 35 34 33 33 33 34 34 33 34 35 35 36 34
32 33 34 34 33 34 36 36 36 35 35 32 31 30 30 28 31 31 32 35 36 36
34 35 34 34 35 36 36 36 36 36 35 34 33 32 30 28 32 30 31 34 36 37
34 34 34 36 36 36 35 36 35 35 35 35 36 34 32 32 31 30 29 34 35 36
34 35 35 34 35 33 33 34 35 33 33 35 34 34 33 33 32 31 32 33 35 35
34 35 35 33 33 32 35 32 32 32 33 33 33 33 34 33 32 32 32 33 36 36
33 35 35 34 35 33 32 32 31 31 32 33 33 33 33 33 32 32 32 33 36 37
32 34 35 35 32 33 32 31 31 31 31 32 32 34 35 34 32 32 32 32 33 35
33 33 34 35 33 32 32 32 31 30 31 32 32 34 35 35 32 31 31 32 33 34
33 34 33 34 34 33 32 32 32 31 31 33 33 35 35 34 32 32 32 33 32 33
33 34 33 33 33 33 32 32 33 33 32 32 32 34 34 33 32 32 31 33 33 34
32 33 33 33 32 33 33 32 33 32 32 33 32 34 35 33 32 31 31 31 33 35
32 32 34 33 33 33 32 32 32 31 32 33 33 33 34 33 30 31 30 32 32 32
Lifted_Index
13 13 13 13 12 12 12 12 12 12 12 13 13 13 13 13 13 13 13 12 11 11
13 13 12 12 12 12 12 12 11 12 12 12 12 13 13 13 13 13 13 13 12 11
12 12 12 11 12 12 12 12 11 11 12 12 12 12 12 12 13 13 13 13 13 12
12 12 12 11 12 12 12 11 11 11 11 11 11 11 12 12 12 12 12 12 12 13
11 11 11 12 12 12 11 11 11 11 11 11 11 11 11 11 12 12 12 12 12 12
11 11 12 12 12 12 11 11 11 11 11 11 11 11 11 11 11 11 11 11 11 12
12 12 12 12 12 12 11 11 11 11 11 11 10 11 11 11 11 11 11 11 11 11
12 13 13 12 12 11 11 11 11 11 10 10 10 11 12 12 12 12 11 11 11 10
13 13 13 12 12 11 11 11 10 10 10 10 10 10 12 12 12 12 12 11 10 10
14 14 13 13 12 11 11 10 10 9 9 9 9 10 11 12 12 12 12 11 10 10
15 14 14 13 12 11 10 9 9 9 9 8 8 9 11 12 12 12 12 12 11 10
15 15 14 13 11 11 10 9 8 8 8 8 8 9 11 12 12 13 13 12 11 11
15 15 14 13 12 11 10 9 9 8 8 8 8 9 11 12 13 13 13 13 12 12
15 15 14 13 12 11 11 10 9 9 8 8 9 10 11 12 13 13 13 13 13 12